When you browse on this site, cookies collect data to enhance your experience and personalize the content and advertising you see.
Visit our Privacy Policy to learn more. By continuing to use the site, you agree to this use of cookies and data.
  • In Sweden
  • List of Countries
  • For 7 days
  • Water Temperature
  • Weather Map
  • Weather Widgets
  • user-avatar
    Login

    Hourly Weather Sada

    Today, 24 January, Friday

    Time Temperature Precipitation Wind Pressure Humidity
    00:00 +10°C° 0.2 mm 1 mps 570 mmHg 90%
    01:00 +10°C° 0.1 mm 1 mps 569 mmHg 90%
    02:00 +9°C° 0.1 mm 1 mps 569 mmHg 91%
    03:00 +9°C° 0 mm 1 mps 568 mmHg 91%
    04:00 +9°C° 0 mm 1 mps 569 mmHg 91%
    05:00 +9°C° 0 mm 1 mps 569 mmHg 90%
    06:00 +9°C° 0 mm 1 mps 569 mmHg 90%
    07:00 +10°C° 0 mm 1 mps 570 mmHg 85%
    08:00 +10°C° 0 mm 2 mps 570 mmHg 81%
    09:00 +10°C° 0 mm 2 mps 571 mmHg 77%
    10:00 +11°C° 0 mm 3 mps 571 mmHg 73%
    11:00 +12°C° 0 mm 4 mps 571 mmHg 68%
    12:00 +13°C° 0 mm 5 mps 571 mmHg 64%
    13:00 +13°C° 0.1 mm 5 mps 571 mmHg 65%
    14:00 +13°C° 0.1 mm 5 mps 570 mmHg 67%
    15:00 +12°C° 0.1 mm 5 mps 570 mmHg 69%
    16:00 +12°C° 0 mm 4 mps 569 mmHg 72%
    17:00 +11°C° 0 mm 3 mps 569 mmHg 76%
    18:00 +10°C° 0 mm 3 mps 569 mmHg 79%
    19:00 +10°C° 0 mm 2 mps 570 mmHg 81%
    20:00 +10°C° 0 mm 2 mps 570 mmHg 83%
    21:00 +10°C° 0 mm 1 mps 570 mmHg 84%
    22:00 +10°C° 0 mm 1 mps 570 mmHg 85%
    23:00 +10°C° 0 mm 1 mps 570 mmHg 85%

    Tomorrow, 25 January, Saturday

    Time Temperature Precipitation Wind Pressure Humidity
    00:00 +10°C° 0 mm 1 mps 570 mmHg 86%
    01:00 +10°C° 0 mm 1 mps 570 mmHg 86%
    02:00 +9°C° 0 mm 1 mps 569 mmHg 86%
    03:00 +8°C° 0 mm 2 mps 569 mmHg 86%
    04:00 +9°C° 0 mm 1 mps 569 mmHg 87%
    05:00 +9°C° 0 mm 1 mps 569 mmHg 88%
    06:00 +9°C° 0 mm 1 mps 569 mmHg 89%
    07:00 +8°C° 0 mm 2 mps 570 mmHg 81%
    08:00 +9°C° 0 mm 2 mps 571 mmHg 74%
    09:00 +10°C° 0 mm 3 mps 571 mmHg 67%
    10:00 +11°C° 0 mm 3 mps 572 mmHg 63%
    11:00 +12°C° 0 mm 4 mps 572 mmHg 59%
    12:00 +13°C° 0 mm 5 mps 572 mmHg 55%
    13:00 +13°C° 0 mm 5 mps 571 mmHg 57%
    14:00 +13°C° 0 mm 5 mps 571 mmHg 59%
    15:00 +12°C° 0 mm 5 mps 570 mmHg 61%
    16:00 +12°C° 0 mm 4 mps 570 mmHg 65%
    17:00 +11°C° 0 mm 3 mps 570 mmHg 69%
    18:00 +10°C° 0 mm 2 mps 570 mmHg 73%
    19:00 +10°C° 0 mm 2 mps 570 mmHg 74%
    20:00 +10°C° 0 mm 1 mps 570 mmHg 75%
    21:00 +10°C° 0 mm 1 mps 571 mmHg 76%
    22:00 +10°C° 0 mm 1 mps 570 mmHg 76%
    23:00 +10°C° 0 mm 1 mps 570 mmHg 76%

    Day after tomorrow, 26 January, Sunday

    Time Temperature Precipitation Wind Pressure Humidity
    00:00 +9°C° 0 mm 1 mps 570 mmHg 76%
    01:00 +9°C° 0 mm 1 mps 570 mmHg 76%
    02:00 +9°C° 0 mm 1 mps 569 mmHg 77%
    03:00 +8°C° 0 mm 1 mps 569 mmHg 78%
    04:00 +8°C° 0 mm 1 mps 569 mmHg 76%
    05:00 +6°C° 0 mm 2 mps 569 mmHg 74%
    06:00 +6°C° 0 mm 2 mps 569 mmHg 72%
    07:00 +5°C° 0 mm 3 mps 570 mmHg 60%
    08:00 +7°C° 0 mm 3 mps 570 mmHg 49%
    09:00 +8°C° 0 mm 3 mps 571 mmHg 38%
    10:00 +9°C° 0 mm 3 mps 571 mmHg 36%
    11:00 +10°C° 0 mm 2 mps 572 mmHg 35%
    12:00 +13°C° 0 mm 2 mps 572 mmHg 34%
    13:00 +13°C° 0 mm 2 mps 572 mmHg 35%
    14:00 +14°C° 0 mm 2 mps 572 mmHg 35%
    15:00 +15°C° 0 mm 2 mps 572 mmHg 36%
    16:00 +14°C° 0 mm 2 mps 571 mmHg 41%
    17:00 +13°C° 0 mm 2 mps 571 mmHg 46%
    18:00 +12°C° 0 mm 2 mps 571 mmHg 51%
    19:00 +10°C° 0 mm 3 mps 571 mmHg 52%
    20:00 +8°C° 0 mm 3 mps 570 mmHg 53%
    21:00 +7°C° 0 mm 3 mps 570 mmHg 54%
    22:00 +5°C° 0 mm 3 mps 569 mmHg 56%
    23:00 +5°C° 0 mm 3 mps 569 mmHg 57%

    27 January, Monday

    Time Temperature Precipitation Wind Pressure Humidity
    00:00 +4°C° 0 mm 3 mps 569 mmHg 58%
    01:00 +4°C° 0 mm 3 mps 568 mmHg 60%
    02:00 +3°C° 0 mm 3 mps 568 mmHg 61%
    03:00 +3°C° 0 mm 3 mps 568 mmHg 63%
    04:00 +2°C° 0 mm 3 mps 568 mmHg 64%
    05:00 +2°C° 0 mm 3 mps 568 mmHg 65%
    06:00 +2°C° 0 mm 3 mps 568 mmHg 67%
    07:00 +3°C° 0 mm 3 mps 568 mmHg 61%
    08:00 +4°C° 0 mm 3 mps 569 mmHg 56%
    09:00 +7°C° 0 mm 2 mps 570 mmHg 50%
    10:00 +9°C° 0 mm 2 mps 571 mmHg 47%
    11:00 +12°C° 0 mm 2 mps 571 mmHg 44%
    12:00 +14°C° 0 mm 1 mps 572 mmHg 41%
    13:00 +14°C° 0 mm 2 mps 572 mmHg 41%
    14:00 +15°C° 0 mm 2 mps 572 mmHg 40%
    15:00 +14°C° 0 mm 3 mps 572 mmHg 40%
    16:00 +15°C° 0 mm 2 mps 571 mmHg 43%
    17:00 +14°C° 0 mm 2 mps 571 mmHg 47%
    18:00 +13°C° 0 mm 1 mps 571 mmHg 51%
    19:00 +12°C° 0 mm 1 mps 571 mmHg 48%
    20:00 +10°C° 0 mm 2 mps 570 mmHg 45%
    21:00 +9°C° 0 mm 2 mps 570 mmHg 42%
    22:00 +8°C° 0 mm 2 mps 570 mmHg 40%
    23:00 +7°C° 0 mm 2 mps 569 mmHg 39%

    28 January, Tuesday

    Time Temperature Precipitation Wind Pressure Humidity
    00:00 +6°C° 0 mm 2 mps 569 mmHg 37%
    01:00 +6°C° 0 mm 2 mps 568 mmHg 39%
    02:00 +6°C° 0 mm 2 mps 568 mmHg 40%
    03:00 +5°C° 0 mm 2 mps 568 mmHg 42%
    04:00 +5°C° 0 mm 2 mps 568 mmHg 43%
    05:00 +5°C° 0 mm 2 mps 568 mmHg 44%
    06:00 +6°C° 0 mm 1 mps 568 mmHg 46%
    07:00 +7°C° 0 mm 1 mps 569 mmHg 42%
    08:00 +9°C° 0 mm 1 mps 570 mmHg 39%
    09:00 +11°C° 0 mm 1 mps 571 mmHg 35%
    10:00 +12°C° 0 mm 1 mps 571 mmHg 35%
    11:00 +14°C° 0 mm 2 mps 572 mmHg 36%
    12:00 +15°C° 0 mm 2 mps 572 mmHg 36%
    13:00 +15°C° 0 mm 2 mps 572 mmHg 37%
    14:00 +16°C° 0 mm 3 mps 571 mmHg 38%
    15:00 +16°C° 0 mm 3 mps 571 mmHg 40%
    16:00 +15°C° 0 mm 2 mps 571 mmHg 43%
    17:00 +14°C° 0 mm 2 mps 571 mmHg 46%
    18:00 +14°C° 0 mm 1 mps 570 mmHg 49%
    19:00 +13°C° 0 mm 1 mps 570 mmHg 47%
    20:00 +12°C° 0 mm 1 mps 570 mmHg 44%
    21:00 +11°C° 0 mm 1 mps 570 mmHg 42%
    22:00 +10°C° 0 mm 1 mps 570 mmHg 41%
    23:00 +10°C° 0 mm 1 mps 569 mmHg 41%

    29 January, Wednesday

    Time Temperature Precipitation Wind Pressure Humidity
    00:00 +9°C° 0 mm 1 mps 569 mmHg 41%
    01:00 +9°C° 0 mm 1 mps 568 mmHg 45%
    02:00 +8°C° 0 mm 1 mps 568 mmHg 50%
    03:00 +7°C° 0 mm 0 mps 567 mmHg 55%
    04:00 +7°C° 0 mm 0 mps 567 mmHg 56%
    05:00 +6°C° 0 mm 0 mps 567 mmHg 57%
    06:00 +6°C° 0 mm 0 mps 567 mmHg 57%
    07:00 +9°C° 0 mm 1 mps 568 mmHg 53%
    08:00 +10°C° 0 mm 1 mps 570 mmHg 50%
    09:00 +12°C° 0 mm 1 mps 571 mmHg 46%
    10:00 +13°C° 0 mm 2 mps 571 mmHg 45%
    11:00 +13°C° 0 mm 3 mps 571 mmHg 44%
    12:00 +14°C° 0 mm 3 mps 571 mmHg 43%
    13:00 +16°C° 0 mm 3 mps 571 mmHg 46%
    14:00 +16°C° 0 mm 3 mps 571 mmHg 48%
    15:00 +16°C° 0 mm 3 mps 570 mmHg 50%
    16:00 +14°C° 0 mm 3 mps 570 mmHg 55%
    17:00 +13°C° 0 mm 3 mps 570 mmHg 60%
    18:00 +13°C° 0 mm 2 mps 569 mmHg 65%
    19:00 +13°C° 0 mm 1 mps 570 mmHg 67%
    20:00 +12°C° 0 mm 1 mps 570 mmHg 70%
    21:00 +11°C° 0 mm 0 mps 570 mmHg 72%
    22:00 +10°C° 0 mm 0 mps 570 mmHg 72%
    23:00 +10°C° 0 mm 0 mps 569 mmHg 71%
    Show more